Regional Weather Roundup
Issued by NWS Midland/Odessa, TX

Skip options and go directly to product.
Home | Oldest Version | Next Version | Current Version | All | Text Only | Save Text | Print | Product List | Glossary On

Skip product version selection by date and time.   
427
ASUS44 KMAF 020002
RWRMAF
MIDLAND AREA WEATHER ROUNDUP
NATIONAL WEATHER SERVICE MIDLAND TX
700 PM CDT MON SEP 01 2014

...IN SOUTHWEST TEXAS AND SOUTHEAST NEW MEXICO...

CITY           SKY/WX    TMP DP  RH WIND       PRES   REMARKS
ALPINE         PTSUNNY   91  49  23 W10       30.04R
ANDREWS        FAIR     101  42  13 SW6       29.85S
ARTESIA        NOT AVBL
BIG SPRING     SUNNY    102  54  20 S9        29.84F HX 100
CARLSBAD       SUNNY    102  34   9 CALM      29.84S
DRYDEN           N/A    101  59  24 E15G26    29.81F HX 101
FORT STOCKTON  MOSUNNY   97  57  26 SE17G28   29.85S
GUAD PASS      SUNNY     92  40  16 W18G30    30.07R
HOBBS          SUNNY     99  37  12 S6        29.89F
MARFA          PTSUNNY   91  46  21 E20G25    30.04R
MIDLAND AIRPK  MOSUNNY  102  53  19 S14       29.83F
MIDLAND INTL   SUNNY    101  53  20 S13       29.83S
ODESSA         MOSUNNY  101  48  16 S16       29.84F
PECOS          SUNNY    104  44  13 S3        29.79S
PRESIDIO       FAIR     101  49  17 NW5       29.82F
SEMINOLE       SUNNY    101  39  12 SW8       29.86S
SNYDER         MOSUNNY  100  60  26 S15       29.82F HX 100
WINK           SUNNY    103  42  12 VRB3      29.80F
$$
...OTHER STATIONS IN TEXAS...

CITY           SKY/WX    TMP DP  RH WIND       PRES   REMARKS
ABILENE        SUNNY     98  61  29 SE23      29.82S
AMARILLO       SUNNY     92  55  28 E5        29.90S
AUSTIN         MOSUNNY   93  70  46 S17       29.84S
BROWNSVILLE    SUNNY     88  77  69 E16       29.85S HX 100
CORPUS CHRISTI MOSUNNY   87  75  67 SE17      29.86F
DALLAS FTW     MOSUNNY   93  69  45 SE17G25   29.83S
DEL RIO        SUNNY    100  62  28 SE16      29.77F HX 101
EL PASO        MOSUNNY   98  34  10 W16       29.92S
HOUSTON INT    PTCLDY    88  73  62 S9        29.90R
LUBBOCK        MOSUNNY  100  44  14 S16       29.84S
SAN ANGELO     SUNNY     98  60  28 S12G17    29.83S
SAN ANTONIO    MOSUNNY   96  67  38 S16G22    29.85R HX 100
WACO           MOSUNNY   95  66  38 SE13      29.84S
WICHITA FALLS  NOT AVBL
$$
...OTHER LOCATIONS IN NEW MEXICO...

CITY           SKY/WX    TMP DP  RH WIND       PRES   REMARKS
ALAMAGORDO     SUNNY     95  32  11 SW8       29.95S
ALBUQUERQUE    MOSUNNY   90  35  14 VRB3      30.02F
CANNON AFB     SUNNY     95  40  14 SW9       29.93S
CLOVIS           N/A     95  41  15 W10G16    29.95R
HOLLOMAN AFB   SUNNY     96  29   9 W6        29.93S
ROSWELL        SUNNY     99  40  13 SE8       29.87F
RUIDOSO        SUNNY     82  36  18 SW6       30.18S
SANTA FE       SUNNY     87  29  12 W17       30.08S
TRUTH OR CONSE SUNNY     95  33  11 S7        29.97S
TUCUMCARI      SUNNY     98  34  10 W8        29.87F
$$

USA.gov is the U.S. government's official web portal to all federal, state and local government web resources and services.